[[{"header":{"parameterUnit":"m.s-1","parameterCategory":1,"la1":30.2991,"la2":30.254,"lo1":-89.0895,"lo2":-89.0444,"dy":0.0017,"dx":0.0017,"nx":28,"ny":28,"refTime":"2024-05-03T09:00:00:Z","depth":0,"parameterNumber":2,"parameterNumberName":"U-component_of_WINDS"},"data":[0,0,0,0,0,0,0,0,0,0,0,0,0,0,0,0,0,0,0,0,0,0,0,0,0,0,0,0,0,0,0,0,0,0,0,0,0,0,0,0,0,0,0,0,0,0,0,0,0,0,0,0,0,0,0,0,0,0,-2.2213,-2.2214,0,-2.2279,-2.228,-2.228,-2.2298,-2.2298,-2.2298,-2.2297,-2.2366,-2.2368,-2.237,0,0,0,0,0,0,0,0,0,0,0,0,0,-2.2104,-2.2106,-2.2213,-2.2214,-2.2214,-2.2279,-2.228,-2.2281,-2.2298,-2.2298,-2.2297,-2.2297,-2.2365,-2.2367,-2.237,0,0,0,0,0,0,0,0,0,0,0,0,0,-2.2159,-2.2107,-2.2213,-2.2231,-2.2233,-2.2279,-2.228,-2.2281,-2.2298,-2.2298,-2.2297,-2.2297,-2.2364,-2.2367,-2.237,-2.2402,0,0,-2.238,-2.2382,0,0,0,0,0,0,0,0,-2.2156,-2.2163,-2.2227,-2.223,-2.2232,-2.228,-2.2267,-2.2322,-2.2299,-2.2274,-2.2297,-2.2296,-2.2338,-2.2343,-2.2357,-2.2406,-2.2409,-2.2381,-2.2383,-2.2384,-2.2385,0,0,0,0,0,0,0,-2.2152,-2.216,-2.2239,-2.2228,-2.2231,-2.2237,-2.2244,-2.2277,-2.2308,-2.2276,-2.2277,-2.2285,-2.2339,-2.2353,-2.2358,-2.241,-2.2381,-2.2384,-2.2386,-2.2387,-2.249,-2.2491,0,0,0,0,0,0,-2.2145,-2.2157,-2.2237,-2.2241,-2.2192,-2.2239,-2.2247,-2.2265,-2.2308,-2.2314,-2.2285,-2.2285,-2.2348,-2.2355,-2.2361,-2.2402,-2.2384,-2.2387,-2.2389,-2.2489,-2.249,-2.2491,0,0,0,0,0,0,-2.2143,-2.2152,-2.2234,-2.2199,-2.221,-2.2242,-2.2262,-2.2267,-2.2281,-2.2315,-2.2321,-2.2294,-2.2348,-2.2356,-2.2392,-2.2405,-2.2389,-2.2392,-2.2489,-2.249,-2.2491,-2.2484,0,0,0,0,0,0,-2.2139,-2.2151,-2.2163,-2.22,-2.2212,-2.2264,-2.2263,-2.2269,-2.2287,-2.2288,-2.2325,-2.2331,-2.2348,-2.2387,-2.2396,-2.2409,-2.2394,-2.2488,-2.2489,-2.249,-2.2483,-2.2485,-2.2486,0,0,0,0,0,-2.2135,-2.2158,-2.2163,-2.2173,-2.2227,-2.2264,-2.2272,-2.2291,-2.2288,-2.23,-2.2322,-2.2329,-2.2402,-2.2391,-2.24,-2.2415,-2.2487,-2.2489,-2.249,-2.2483,-2.2485,-2.2486,0,0,0,0,0,0,-2.2121,-2.2163,-2.2169,-2.2204,-2.2231,-2.2267,-2.2283,-2.2292,-2.232,-2.232,-2.2343,-2.2352,-2.2386,-2.2404,-2.2391,-2.2449,-2.2445,-2.2448,-2.2436,-2.2438,-2.2439,-2.2434,-2.2397,0,0,0,0,0,-2.2122,-2.2148,-2.2184,-2.2211,-2.2224,-2.2252,-2.2268,-2.2281,-2.231,-2.2321,-2.2346,-2.2373,-2.2403,-2.2421,-2.245,-2.2487,-2.2496,-2.2501,-2.2503,-2.2504,-2.2507,-2.2529,-2.2532,-2.2497,-2.2497,-2.2497,0,0,-2.2125,-2.2151,-2.2165,-2.2209,-2.2231,-2.2258,-2.2261,-2.2289,-2.231,-2.2325,-2.2361,-2.238,-2.2413,-2.245,-2.2467,-2.2466,-2.2519,-2.2506,-2.2507,-2.2509,-2.2531,-2.2534,-2.2537,-2.2498,-2.2498,-2.2498,0,0,-2.2143,-2.2164,-2.219,-2.2213,-2.2246,-2.2265,-2.2271,-2.2307,-2.232,-2.2357,-2.2369,-2.2395,-2.2444,-2.2468,-2.2486,-2.2515,-2.2523,-2.2524,-2.2531,-2.2553,-2.2555,-2.2558,-2.2569,-2.2573,-2.2527,-2.2527,-2.2527,0,-2.2141,-2.2182,-2.2203,-2.2231,-2.225,-2.2266,-2.2293,-2.2314,-2.2355,-2.2369,-2.2367,-2.2431,-2.2454,-2.2497,-2.2504,-2.2518,-2.2527,-2.2519,-2.2553,-2.2556,-2.2559,-2.257,-2.2574,-2.2527,-2.2527,-2.2527,-2.2527,0,-2.2179,-2.2207,-2.2224,-2.2264,-2.2285,-2.2313,-2.2339,-2.2358,-2.237,-2.2389,-2.2427,-2.2456,-2.2491,-2.2502,-2.2514,-2.2548,-2.2546,-2.2548,-2.2544,-2.2562,-2.2572,-2.2577,-2.2527,-2.2527,-2.2527,-2.2527,0,0,-2.2188,-2.224,-2.2246,-2.2265,-2.2304,-2.2327,-2.2356,-2.2391,-2.2407,-2.2436,-2.2462,-2.2505,-2.2508,-2.2528,-2.2543,-2.2562,-2.2584,-2.2562,-2.2563,-2.2566,-2.2625,-2.2623,-2.2627,-2.2591,-2.2591,-2.2592,-2.2622,0,-2.2211,-2.2263,-2.2283,-2.2326,-2.2353,-2.237,-2.2395,-2.2423,-2.2442,-2.2469,-2.249,-2.252,-2.2522,-2.2535,-2.2554,-2.2577,-2.2597,-2.2576,-2.2615,-2.2616,-2.2606,-2.2633,-2.263,-2.2657,-2.2627,-2.2627,-2.2628,0,-2.2245,-2.2274,-2.2319,-2.2356,-2.2368,-2.2391,-2.2425,-2.245,-2.2482,-2.2495,-2.252,-2.2534,-2.2566,-2.2561,-2.2606,-2.2592,-2.261,-2.2624,-2.2625,-2.263,-2.2623,-2.2638,-2.2666,-2.267,-2.2634,-2.2634,-2.2633,0,-2.2248,-2.2298,-2.2332,-2.2348,-2.2392,-2.2407,-2.2427,-2.2458,-2.2478,-2.2509,-2.2523,-2.2557,-2.2575,-2.2602,-2.2625,-2.2619,-2.2669,-2.2666,-2.2681,-2.2681,-2.2691,-2.269,-2.2722,-2.2702,-2.2702,-2.2702,-2.2702,0,-2.2271,-2.2298,-2.2334,-2.2355,-2.2386,-2.241,-2.2441,-2.2462,-2.249,-2.2516,-2.2533,-2.2557,-2.2586,-2.2615,-2.2634,-2.2669,-2.2678,-2.269,-2.2694,-2.2688,-2.2686,-2.27,-2.2698,-2.2703,-2.2703,-2.2703,-2.2702,0,-2.2279,-2.2304,-2.2342,-2.2381,-2.2392,-2.2414,-2.2448,-2.2469,-2.249,-2.2523,-2.2532,-2.2564,-2.2599,-2.2625,-2.267,-2.2683,-2.2721,-2.2726,-2.271,-2.2712,-2.2727,-2.2725,-2.2769,-2.2776,-2.2751,-2.2751,-2.2751,0,-2.2293,-2.2314,-2.2355,-2.2374,-2.2393,-2.2422,-2.2443,-2.2469,-2.249,-2.2529,-2.2546,-2.2582,-2.2612,-2.2667,-2.2695,-2.273,-2.2736,-2.2749,-2.2741,-2.2735,-2.2737,-2.2735,-2.2738,-2.275,-2.275,-2.275,-2.275,0,-2.2314,-2.2326,-2.2354,-2.2388,-2.2413,-2.2441,-2.2469,-2.2484,-2.2515,-2.2538,-2.2573,-2.2597,-2.2643,-2.2679,-2.2717,-2.2738,-2.275,-2.2752,-2.2758,-2.2752,-2.2742,-2.2748,-2.2713,-2.2751,-2.2751,-2.2751,-2.2751,-2.2751,-2.2326,-2.2346,-2.2378,-2.2411,-2.2435,-2.2461,-2.2484,-2.2508,-2.2538,-2.2577,-2.259,-2.2627,-2.2661,-2.2713,-2.2735,-2.2765,-2.2765,-2.2773,-2.2775,-2.2777,-2.2777,-2.2737,-2.2772,-2.2772,-2.2772,-2.2772,-2.2772,0,-2.2348,-2.237,-2.24,-2.2439,-2.2465,-2.2474,-2.2506,-2.2528,-2.256,-2.259,-2.2619,-2.2661,-2.2696,-2.2728,-2.2765,-2.2783,-2.2789,-2.2792,-2.2791,-2.2796,-2.2774,-2.2766,-2.2786,-2.2786,-2.2786,-2.2786,-2.2786,-2.2786,-2.2363,-2.2398,-2.2414,-2.2461,-2.2484,-2.252,-2.2538,-2.2563,-2.2587,-2.2633,-2.2662,-2.2682,-2.2714,-2.2753,-2.2787,-2.2795,-2.2808,-2.281,-2.282,-2.2799,-2.2797,-2.2795,-2.2788,-2.2812,-2.2812,-2.2839,-2.2839,-2.2839]},{"header":{"parameterUnit":"m.s-1","parameterCategory":1,"la1":30.2991,"la2":30.254,"lo1":-89.0895,"lo2":-89.0444,"dy":0.0017,"dx":0.0017,"nx":28,"ny":28,"refTime":"2024-05-03T09:00:00:Z","depth":0,"parameterNumber":3,"parameterNumberName":"V-component_of_WINDS"},"data":[0,0,0,0,0,0,0,0,0,0,0,0,0,0,0,0,0,0,0,0,0,0,0,0,0,0,0,0,0,0,0,0,0,0,0,0,0,0,0,0,0,0,0,0,0,0,0,0,0,0,0,0,0,0,0,0,0,0,3.9609,3.961,0,3.9614,3.9614,3.9614,3.9639,3.964,3.964,3.9641,3.964,3.9639,3.9639,0,0,0,0,0,0,0,0,0,0,0,0,0,3.9617,3.9617,3.9609,3.961,3.961,3.9614,3.9614,3.9614,3.9639,3.964,3.964,3.9641,3.964,3.964,3.9639,0,0,0,0,0,0,0,0,0,0,0,0,0,3.9617,3.9617,3.9609,3.9623,3.9624,3.9614,3.9614,3.9614,3.9639,3.964,3.9641,3.9641,3.964,3.964,3.9639,3.9615,0,0,3.9636,3.9636,0,0,0,0,0,0,0,0,3.9617,3.9617,3.9621,3.9622,3.9623,3.9627,3.9617,3.9615,3.9639,3.9633,3.9641,3.9642,3.9635,3.9634,3.9633,3.9615,3.9615,3.9636,3.9635,3.9635,3.9635,0,0,0,0,0,0,0,3.9617,3.9617,3.9611,3.9621,3.9622,3.9627,3.9628,3.9617,3.9628,3.9633,3.9635,3.9636,3.9635,3.9634,3.9633,3.9615,3.9636,3.9635,3.9635,3.9634,3.958,3.9579,0,0,0,0,0,0,3.9616,3.9616,3.9611,3.9611,3.9622,3.9626,3.9627,3.9625,3.9629,3.963,3.9635,3.9637,3.9635,3.9634,3.9633,3.9607,3.9635,3.9634,3.9634,3.9581,3.958,3.9579,0,0,0,0,0,0,3.9616,3.9615,3.9611,3.9614,3.9614,3.9625,3.9622,3.9624,3.9623,3.963,3.9632,3.9632,3.9636,3.9634,3.962,3.9608,3.9634,3.9633,3.9582,3.9581,3.9579,3.9554,0,0,0,0,0,0,3.9616,3.9615,3.9607,3.9614,3.9614,3.9599,3.9621,3.9624,3.9622,3.9625,3.9627,3.9628,3.9636,3.9622,3.962,3.9607,3.9632,3.9583,3.9581,3.958,3.9556,3.9552,3.9549,0,0,0,0,0,3.9616,3.9598,3.9607,3.9606,3.9605,3.9598,3.9598,3.9609,3.9621,3.9613,3.9617,3.9628,3.9609,3.962,3.9618,3.9605,3.9584,3.9582,3.958,3.9558,3.9553,3.9549,0,0,0,0,0,0,3.9587,3.9599,3.9609,3.9593,3.9595,3.9603,3.9592,3.9603,3.96,3.9602,3.9614,3.9615,3.9599,3.96,3.9612,3.9583,3.9599,3.9596,3.9583,3.9578,3.9574,3.9574,3.9632,0,0,0,0,0,3.9579,3.9575,3.9585,3.957,3.9571,3.9581,3.9579,3.9588,3.9589,3.9589,3.9593,3.9592,3.9587,3.9582,3.9577,3.9557,3.9558,3.9547,3.9543,3.954,3.9537,3.9527,3.9523,3.9572,3.9572,3.9572,0,0,3.9562,3.9568,3.9564,3.9564,3.9567,3.9561,3.9582,3.9574,3.9569,3.9587,3.9575,3.9578,3.9578,3.9561,3.9554,3.9562,3.9524,3.9537,3.9534,3.9534,3.9525,3.952,3.9516,3.9571,3.9571,3.9571,0,0,3.9528,3.9532,3.9521,3.9524,3.9528,3.9535,3.9533,3.9539,3.9543,3.9531,3.9545,3.9539,3.9528,3.9529,3.9527,3.9495,3.9505,3.9493,3.9473,3.9463,3.9459,3.9456,3.9445,3.9441,3.949,3.949,3.949,0,3.9506,3.9499,3.9513,3.9505,3.9505,3.9524,3.9512,3.9513,3.9514,3.9513,3.9523,3.9511,3.9513,3.9497,3.9489,3.9487,3.9484,3.9492,3.9459,3.9456,3.9453,3.9443,3.9438,3.9489,3.9489,3.9489,3.9489,0,3.9471,3.9466,3.9456,3.946,3.9458,3.9448,3.946,3.9457,3.9466,3.9472,3.946,3.9463,3.946,3.9456,3.9464,3.9442,3.9447,3.9457,3.9473,3.9447,3.9437,3.9433,3.9487,3.9487,3.9488,3.9488,0,0,3.9418,3.9432,3.9428,3.943,3.9437,3.9433,3.9423,3.9422,3.9419,3.942,3.9412,3.9404,3.9415,3.9413,3.9421,3.9412,3.9388,3.9424,3.9425,3.9418,3.9364,3.9356,3.9351,3.9395,3.9394,3.9394,3.9364,0,3.9386,3.9373,3.9387,3.937,3.9366,3.9384,3.9376,3.9379,3.9385,3.9381,3.9387,3.9381,3.9395,3.9395,3.9387,3.9393,3.9377,3.9395,3.9387,3.9387,3.9387,3.9346,3.9338,3.931,3.9361,3.936,3.9359,0,3.9347,3.9349,3.9333,3.9342,3.9341,3.9333,3.9334,3.933,3.9334,3.9339,3.9338,3.9349,3.934,3.9356,3.9343,3.9355,3.9353,3.9355,3.9354,3.9354,3.9371,3.9345,3.9301,3.9297,3.9354,3.9354,3.9355,0,3.9311,3.9308,3.9299,3.93,3.9311,3.9306,3.9309,3.9314,3.9313,3.9313,3.9312,3.931,3.9309,3.9307,3.9316,3.9327,3.9303,3.9319,3.9306,3.9306,3.93,3.93,3.9255,3.9298,3.9298,3.9298,3.9298,0,3.9274,3.9264,3.9283,3.9277,3.9266,3.9281,3.9269,3.9275,3.9279,3.9274,3.9289,3.9283,3.9297,3.9292,3.9299,3.9288,3.9287,3.9291,3.9293,3.9289,3.9289,3.9288,3.929,3.9297,3.9297,3.9297,3.9297,0,3.9232,3.9244,3.9235,3.9247,3.9249,3.9241,3.925,3.9244,3.9252,3.9245,3.9245,3.9256,3.9252,3.9262,3.9258,3.9263,3.9247,3.9252,3.9247,3.9248,3.9234,3.9236,3.9187,3.9182,3.9228,3.9227,3.9227,0,3.9207,3.92,3.9212,3.921,3.9214,3.9211,3.9211,3.9225,3.9224,3.9229,3.9222,3.922,3.9219,3.9211,3.9218,3.9216,3.9221,3.9204,3.922,3.9218,3.9221,3.9222,3.9221,3.92,3.92,3.9199,3.9199,0,3.9163,3.9171,3.917,3.9173,3.9172,3.9174,3.9177,3.9175,3.919,3.9188,3.9185,3.9185,3.9182,3.918,3.9179,3.9182,3.9193,3.9194,3.9191,3.9187,3.9185,3.9187,3.9238,3.9195,3.9195,3.9196,3.9196,3.9196,3.913,3.9125,3.9133,3.9132,3.9136,3.9139,3.9135,3.9143,3.9141,3.9142,3.915,3.9146,3.915,3.9151,3.9153,3.9149,3.9156,3.9152,3.915,3.9149,3.9147,3.9186,3.9149,3.9149,3.9149,3.9149,3.9149,0,3.9087,3.9094,3.9093,3.9098,3.9097,3.911,3.9114,3.9112,3.9109,3.9113,3.9112,3.9109,3.9107,3.9115,3.9114,3.9109,3.9114,3.9108,3.9108,3.9109,3.914,3.9143,3.9104,3.9104,3.9104,3.9104,3.9104,3.9104,3.9065,3.9058,3.9066,3.906,3.9066,3.9064,3.9065,3.9068,3.9071,3.9068,3.9067,3.9073,3.9078,3.9078,3.9076,3.9078,3.9077,3.907,3.9073,3.9102,3.9107,3.9111,3.9114,3.9069,3.9069,3.9043,3.9042,3.9042]}]]